Showing default

OPS 9347 (IDSCS 25), 3290

Orbit data source: Space-Track

OPS 9347 (IDSCS 25), 3290 is a payload satellite owned by SAMSO (US) in GEO that was launched on Thu, 13 Jun 1968 UTC via a TITAN IIIC launch vehicle from the Air Force Eastern Test Range (AFETR). Payload-class satellites include a variety of spacecraft equipped with specific instruments for various scientific and technological missions. These include communications satellites like Starlink; space stations such as the ISS; scientific satellites like the Hubble; Earth observation satellites from companies like Planet Labs, Umbra, and HawkEye 360; GPS; miniature CubeSats for education and research; and military/defense satellites.

Not visible in the next 10 days
Identifier
3290, 1968-050G
Orbit
GEO
Country
Flag of USUS
Related business
Manufacturer
Philco-Ford
Mission
Non-operational spacecraft
Bus & Motor
IDCSP, Unknown motor
Mass
45 kg wet, 45 kg dry
Launch date (UTC)
1968-06-13 (57 years ago)
Launch vehicle
TITAN IIIC
Launch site
Air Force Eastern Test Range (AFETR)
Object type
Payload
Rocket body
Debris
Shape & HBR
Unknown
Radar Cross Section
Medium (>0.1 m² and <1 m²)

Expand to show TLE details & history
Last TLE update: 7 hours ago

TLE from 7 hours ago
0 OPS 9347 (IDSCS 25)
1 03290U 68050G   25288.62040441 -.00000124  00000-0  00000-0 0  9997
2 03290   6.4548  56.3308 0061564 131.1874 162.2324  1.07035791 44512
Epoch: 2025-10-15T14:53Z
TLE epoch observation values (Epoch: 2025-10-15T14:53:22.941Z)
Latitude
-5.90459°
Longitude
102.34638°
Altitude
34,229.008 km
Speed
3.124 km/s
True Right ascension
23h 20m 20s
True Declination
-5° 53' 54"
Sunlit
Object was in daylight at epoch
Visualization orbit readout
Latitude
Unknown
Longitude
Unknown
Altitude
Unknown
Speed
Unknown
Apparent Right ascension
Unknown
Apparent Declination
Unknown
Sunlit
N/A
Visualization observer readout
Local Sidereal Time
16:39:20
Azimuth
Unknown
Elevation
Unknown
Doppler factor
Unknown
Orbital elements
Apogee altitude
34,240.602 km
Perigee altitude
33,743.532 km
Semi-major axis
40,370.204 km
Eccentricity
0.00616
Inclination
6.4548°
RAAN
56.3308°
Arg. of periapsis
131.1874°
True anomaly
162.44611°
Mean anomaly
162.2324°
Eccentric anomaly
162.33941°
Mean motion
0.26758 °/min
Orbital period
1,345.4 mins
BSTAR
0
Loading maneuver chart data...
Computing Atmospheric mass density...
Loading historical data...
Loading historical data...
Loading historical data...
Loading historical data...
Loading historical data...
Loading historical data...
Loading historical data...

Documentation

Showing up to 5 results
|